User: anonymous   Login
Location: Fort Wayne
(41.1310°N, 85.1290°W)
Time: 14:34:50
(UTC-04:00)
Language:

Cosmos 2219 Rocket - Orbit

View from above orbital plane
View from above orbital plane
View from above satellite
View from above satellite

Ground track
Ground track

The orbit data is extracted from the following two-line orbital elements,

1 22220U 92076B   14303.36195814  .00000229  00000-0  13913-3 0  4459
2 22220 071.0009 281.6051 0015195 294.1400 169.1860 14.16329428134729
Epoch (UTC): 30 October 2014 08:41:13
Eccentricity: 0.0015195
inclination: 71.0009°
perigee height: 827 km
apogee height: 849 km
right ascension of ascending node: 281.6051°
argument of perigee: 294.1400°
revolutions per day: 14.16329428
mean anomaly at epoch: 169.1860°
orbit number at epoch: 13472

The dashed part of the orbit path shows where the satellite is in the earth's shadow,  

DLR